Regional Weather Roundup
Issued by NWS Raleigh/Durham, NC

Home | Current Version | Previous Version | Text Only | Print | Product List | Glossary On
Versions: 1 2 3 4 5 6 7 8 9 10 11 12 13 14 15 16 17 18 19 20 21 22 23 24 25 26 27 28 29 30 31 32 33 34 35 36 37 38 39 40 41 42 43 44 45 46 47 48 49 50
000
ASUS42 KRAH 240410
RWRRAH
NORTH CAROLINA WEATHER ROUNDUP
NATIONAL WEATHER SERVICE RALEIGH NC
1200 AM EDT FRI MAR 24 2017

NOTE: "FAIR" INDICATES FEW OR NO CLOUDS BELOW 12,000 FEET WITH NO
SIGNIFICANT WEATHER AND/OR OBSTRUCTIONS TO VISIBILITY.

NCZ001-053-055-056-065-067-240500-
WESTERN NORTH CAROLINA

CITY           SKY/WX    TMP DP  RH WIND       PRES   REMARKS
ASHEVILLE      MOCLDY    45  28  51 S5        30.46S
JEFFERSON      CLEAR     37  22  54 CALM      30.43F
MORGANTON      CLEAR     35  32  87 SE3       30.51F
HICKORY        CLEAR     42  28  57 CALM      30.47S
RUTHERFORDTON  PTCLDY    44  28  53 CALM      30.48S
MOUNT AIRY     CLEAR     45  22  41 CALM      30.49S
BOONE          CLEAR     37  22  54 CALM      30.44F
$$

NCZ021-022-025-041-071-084-088-240500-
CENTRAL NORTH CAROLINA

CITY           SKY/WX    TMP DP  RH WIND       PRES   REMARKS
CHARLOTTE      PTCLDY    49  25  39 SE7       30.50S
GREENSBORO     PTCLDY    44  24  45 S9        30.49S
WINSTON-SALEM  CLEAR     46  21  37 S6        30.50S
RALEIGH-DURHAM PTCLDY    44  21  40 SE8       30.53F
FORT BRAGG     CLEAR     44  31  61 SE3       30.53F
FAYETTEVILLE   CLEAR     42  32  67 E5        30.54F
BURLINGTON     CLEAR     45  23  42 VRB5      30.50F
LAURINBURG     NOT AVBL
$$

NCZ011-015-027-028-043-044-047-080-103-240500-
NORTHEASTERN NORTH CAROLINA

CITY           SKY/WX    TMP DP  RH WIND       PRES   REMARKS
ROCKY MT-WILSO CLEAR     40  29  64 VRB3      30.57S
GREENVILLE     CLEAR     37  30  75 CALM      30.58R
ELIZABETH CITY CLEAR     34  29  82 E6        30.60S WCI  29
MANTEO         CLEAR     32  26  80 CALM      30.61R
CAPE HATTERAS  CLEAR     41  32  70 NE6       30.58F
$$

NCZ078-087-090-091-093-098-101-240500-
SOUTHEASTERN NORTH CAROLINA

CITY           SKY/WX    TMP DP  RH WIND       PRES   REMARKS
LUMBERTON      CLEAR     44  35  70 E5        30.54S
GOLDSBORO      CLEAR     40  33  77 E5        30.56S
KINSTON        CLEAR     40  32  74 CALM      30.59R
KENANSVILLE    CLEAR     37  30  75 E3        30.57S
NEW BERN       CLEAR     39  32  76 E5        30.59S
CHERRY POINT   CLEAR     38  31  76 E5        30.59R WCI  34
BEAUFORT       CLEAR     40  32  73 NE7       30.58R
JACKSONVILLE   CLEAR     40  33  76 NE6       30.58R
WILMINGTON     CLEAR     38  33  82 N3        30.55S
$$




USA.gov is the U.S. government's official web portal to all federal, state and local government web resources and services.